Terug naar catalogus

BREEZE-M DEB

LostHEO
NORAD 48529·DEBRIS·🇷🇺 Russia

Gelanceerd Feb 28, 2006 vanaf Baikonur Cosmodrome

Loading…

Volgende Passages (komende 24 uur)

TLE

VerouderdSource: Space-Track

Epoch: May 4, 2021, 08:07 UTC

1 48529U 06006DL  21124.33887427  .00001752  00000-0  87585-2 0  9992
2 48529  52.1576 338.0063 5026166 181.8541 357.8508  5.17106126927758

Volg BREEZE-M DEB in realtime met AllMySat

Download on the App Store